Weather History for PAKN - February, 2013

Change the Weather History Date:

Thursday, February 21, 2013

  Actual Average Record
Temperature  
Mean Temperature 8 °F 20 °F  
Max Temperature 15 °F 28 °F 53 °F (2015)
Min Temperature 1 °F 12 °F -24 °F (1991)
Degree Days  
Heating Degree Days 57 45  
Month to date heating degree days 876 981  
Since 1 July heating degree days 7562 7307  
Cooling Degree Days 0    
Month to date cooling degree days 0  
Year to date cooling degree days 0  
Moisture  
Dew Point 9 °F    
Average Humidity 0    
Maximum Humidity 0    
Minimum Humidity 0    
Precipitation  
Precipitation T in 0.02 in 0.61 in (1977)
Month to date precipitation 1.73 0.58  
Year to date precipitation 4.13 1.60  
Snow  
Snow 0.70 in 0.20 in 5.70 in (1977)
Month to date snowfall 23.1 4.5  
Since 1 July snowfall 57.6 34.0  
Snow Depth 10.00 in    
Sea Level Pressure  
Sea Level Pressure 29.32 in    
Wind  
Wind Speed 5 mph (WNW)    
Max Wind Speed 12 mph    
Max Gust Speed 13 mph    
Visibility 6 miles    
Events Snow    
T = Trace of Precipitation, MM = Missing Value Source: NWS Daily Summary

Daily Weather History Graph

Daily Weather History Graph

Search for Another Location

Airport or City:

Trip Planner

Search our weather history database for the weather conditions in past years. The results will help you decide how hot, cold, wet, or windy it might be!

Date:

Astronomy

Feb. 21, 2013 Rise Set
Actual Time 8:42 AM AKST 6:38 PM AKST
Civil Twilight 8:01 AM AKST 7:19 PM AKST
Nautical Twilight 7:15 AM AKST 8:05 PM AKST
Astronomical Twilight 6:29 AM AKST 8:52 PM AKST
Moon 2:27 PM AKST (2/21) 6:33 AM AKST (2/21)
Length of Visible Light 11h 17m
Length of Day
9h 55m
Waxing Gibbous, 85% of the Moon is Illuminated
Feb 21
Waxing Gibbous
Feb 25
Full
Mar 4
Last Quarter
Mar 11
New
Mar 19
First Quarter

Hourly Weather History & Observations

Time (AKST) Temp. Windchill Dew Point Humidity Pressure Visibility Wind Dir Wind Speed Gust Speed Precip Events Conditions
12:54 AM 14.0 °F 2.9 °F 12.0 °F 92% 29.36 in 8.0 mi South 8.1 mph - 0.00 in Snow Light Snow
1:54 AM 14.0 °F 6.5 °F 10.9 °F 88% 29.35 in 6.0 mi SW 4.6 mph - 0.00 in Snow Light Snow
2:54 AM 12.9 °F - 10.9 °F 92% 29.32 in 7.0 mi Calm Calm - 0.00 in Snow Light Snow
3:54 AM 12.0 °F - 10.0 °F 92% 29.30 in 8.0 mi Calm Calm - 0.00 in   Overcast
4:54 AM 12.0 °F - 10.0 °F 92% 29.28 in 8.0 mi Calm Calm - 0.00 in Snow Light Snow
5:54 AM 12.9 °F - 10.0 °F 88% 29.26 in 9.0 mi Calm Calm - 0.00 in Snow Light Snow
6:54 AM 12.0 °F 5.9 °F 10.0 °F 92% 29.25 in 10.0 mi WNW 3.5 mph - 0.00 in   Overcast
7:54 AM 12.9 °F 6.9 °F 10.0 °F 88% 29.24 in 10.0 mi NW 3.5 mph - N/A   Overcast
8:54 AM 12.9 °F - 10.9 °F 92% 29.24 in 9.0 mi Calm Calm - 0.00 in Snow Light Snow
9:08 AM 12.2 °F 6.1 °F 10.4 °F 92% 29.23 in 7.0 mi NNW 3.5 mph - 0.00 in Snow Light Snow
9:54 AM 14.0 °F 6.5 °F 12.0 °F 92% 29.24 in 5.0 mi NNE 4.6 mph - 0.00 in Snow Light Snow
10:54 AM 15.1 °F 9.4 °F 12.9 °F 91% 29.24 in 3.0 mi North 3.5 mph - 0.00 in Snow Light Snow
11:07 AM 15.8 °F 8.6 °F 12.2 °F 86% 29.24 in 2.5 mi NNW 4.6 mph - 0.00 in Snow Light Snow
11:23 AM 15.8 °F 7.2 °F 12.2 °F 86% 29.24 in 3.0 mi NNW 5.8 mph - 0.00 in Snow Light Snow
11:25 AM 15.8 °F 7.2 °F 12.2 °F 86% 29.24 in 2.5 mi NNW 5.8 mph - 0.00 in Snow Light Snow
11:49 AM 15.8 °F 8.6 °F 12.2 °F 86% 29.25 in 2.0 mi NW 4.6 mph - 0.00 in Snow Light Snow
11:54 AM 15.1 °F 6.4 °F 12.9 °F 91% 29.25 in 2.0 mi NNW 5.8 mph - 0.00 in Snow Light Snow
12:13 PM 15.8 °F 8.6 °F 12.2 °F 86% 29.26 in 2.5 mi NW 4.6 mph - 0.00 in Snow Light Snow
12:54 PM 14.0 °F 2.9 °F 10.0 °F 84% 29.27 in 2.5 mi NW 8.1 mph - 0.00 in Snow Light Snow
1:01 PM 14.0 °F 2.9 °F 10.4 °F 86% 29.27 in 3.0 mi NNW 8.1 mph - 0.00 in Snow Light Snow
1:39 PM 12.2 °F 0.7 °F 8.6 °F 85% 29.28 in 4.0 mi NW 8.1 mph - 0.00 in Snow Light Snow
1:54 PM 12.9 °F 1.6 °F 9.0 °F 84% 29.29 in 4.0 mi NW 8.1 mph - 0.00 in Snow Light Snow
2:54 PM 12.9 °F 2.6 °F 8.1 °F 81% 29.32 in 3.0 mi WNW 6.9 mph - 0.00 in Snow Light Snow
3:13 PM 12.2 °F 0.7 °F 6.8 °F 79% 29.32 in 2.5 mi NW 8.1 mph - 0.00 in Snow Light Snow
3:23 PM 12.2 °F 1.7 °F 6.8 °F 79% 29.32 in 3.0 mi NW 6.9 mph - 0.00 in Snow Light Snow
3:54 PM 12.9 °F 2.6 °F 8.1 °F 81% 29.33 in 5.0 mi West 6.9 mph - 0.00 in Snow Light Snow
4:45 PM 12.2 °F - 8.6 °F 85% 29.34 in 3.0 mi Calm Calm - 0.00 in Snow Light Snow
4:54 PM 12.9 °F 6.9 °F 8.1 °F 81% 29.35 in 4.0 mi SSE 3.5 mph - 0.00 in Snow Light Snow
5:54 PM 12.0 °F - 8.1 °F 84% 29.36 in 6.0 mi Calm Calm - 0.00 in Snow Light Snow
6:25 PM 12.2 °F 2.9 °F 8.6 °F 85% 29.37 in 8.0 mi SSE 5.8 mph - 0.00 in Snow Light Snow
6:54 PM 12.0 °F 4.1 °F 8.1 °F 84% 29.39 in 9.0 mi SSE 4.6 mph - 0.00 in Snow Light Snow
7:31 PM 8.6 °F 0.1 °F 6.8 °F 92% 29.41 in 9.0 mi South 4.6 mph - 0.00 in   Scattered Clouds
7:54 PM 6.1 °F -5.6 °F 3.9 °F 91% 29.42 in 10.0 mi SSE 6.9 mph - 0.00 in   Partly Cloudy
8:54 PM 1.9 °F -7.6 °F -0.0 °F 91% 29.43 in 10.0 mi SE 4.6 mph - N/A   Partly Cloudy
9:54 PM 1.0 °F -10.3 °F -2.0 °F 87% 29.47 in 10.0 mi SSE 5.8 mph - N/A   Mostly Cloudy
10:54 PM 3.0 °F -11.5 °F -0.0 °F 87% 29.48 in 10.0 mi SE 9.2 mph - N/A   Mostly Cloudy
11:16 PM 5.0 °F -10.0 °F 1.4 °F 85% 29.48 in 10.0 mi SE 10.4 mph - N/A   Overcast
11:54 PM 8.1 °F -5.3 °F 5.0 °F 87% 29.48 in 10.0 mi SSE 9.2 mph - N/A   Overcast